^^
Garrymore Weather Station Historical Data
Daily Summary for October 24, 2020 Units:  Metric    English   Both
Daily Weekly Monthly Yearly Custom
  High: Low: Average:
Temperature: 11 °C 7 °C 9.6 °C
Dew Point: 9 °C 5 °C 6.6 °C
Humidity: 91% 70% 83%
Wind Speed: 32km/h 0km/h 12.8km/h
Wind Gust: 60km/h - -
Wind- - South
Pressure: 1000.88 hPa 992.79 hPa -
Precipitation: 23.39 mm    
Historical Graphs
 
 
Tabular Data for October 24, 2020
Time Temperature Dew Point Pressure Wind Wind Speed Wind Gust Humidity Rainfall Rate (Hourly) solar
00:00 9 °C 5 °C 1000.61 hPa S 24 km/h 39 km/h 73% 0 mm 0 W/m2
00:05 9 °C 5 °C 1000.88 hPa SSE 21 km/h 42 km/h 73% 0 mm 0 W/m2
00:10 10 °C 5 °C 1000.51 hPa SSE 21 km/h 37 km/h 73% 0 mm 0 W/m2
00:15 10 °C 5 °C 999.9 hPa SSE 26 km/h 37 km/h 72% 0 mm 0 W/m2
00:20 10 °C 5 °C 999.76 hPa SSE 19 km/h 40 km/h 71% 0 mm 0 W/m2
00:25 10 °C 5 °C 999.8 hPa SSE 29 km/h 43 km/h 70% 0 mm 0 W/m2
00:30 10 °C 5 °C 999.76 hPa SE 24 km/h 48 km/h 70% 0 mm 0 W/m2
00:35 10 °C 5 °C 999.59 hPa SE 19 km/h 43 km/h 70% 0 mm 0 W/m2
00:40 11 °C 5 °C 999.39 hPa SSE 23 km/h 60 km/h 70% 0 mm 0 W/m2
00:45 11 °C 5 °C 999.39 hPa SSE 27 km/h 50 km/h 70% 0 mm 0 W/m2
00:50 11 °C 5 °C 999.19 hPa SSE 19 km/h 37 km/h 70% 0 mm 0 W/m2
00:55 11 °C 5 °C 999.39 hPa SSE 19 km/h 47 km/h 70% 0 mm 0 W/m2
01:00 11 °C 5 °C 999.02 hPa SSE 27 km/h 40 km/h 70% 0 mm 0 W/m2
01:05 11 °C 5 °C 998.82 hPa SE 23 km/h 40 km/h 70% 0 mm 0 W/m2
01:10 11 °C 5 °C 998.51 hPa SE 26 km/h 35 km/h 70% 1.5 mm 0 W/m2
01:15 11 °C 5 °C 998.31 hPa SSE 26 km/h 43 km/h 70% 0 mm 0 W/m2
01:20 11 °C 5 °C 998.58 hPa SSE 24 km/h 48 km/h 70% 0 mm 0 W/m2
01:25 11 °C 5 °C 998.31 hPa SSE 21 km/h 51 km/h 70% 2.69 mm 0 W/m2
01:30 11 °C 6 °C 998.1 hPa S 21 km/h 45 km/h 71% 0 mm 0 W/m2
01:35 11 °C 6 °C 997.9 hPa S 32 km/h 43 km/h 71% 0.3 mm 0 W/m2
01:40 11 °C 6 °C 997.6 hPa S 27 km/h 56 km/h 72% 0 mm 0 W/m2
01:45 10 °C 6 °C 997.39 hPa S 32 km/h 48 km/h 73% 0 mm 0 W/m2
01:50 10 °C 6 °C 997.43 hPa SSE 23 km/h 48 km/h 75% 0 mm 0 W/m2
01:55 10 °C 6 °C 997.39 hPa SSE 23 km/h 40 km/h 77% 0 mm 0 W/m2
02:00 10 °C 6 °C 997.19 hPa SSE 21 km/h 48 km/h 78% 0 mm 0 W/m2
02:05 10 °C 7 °C 996.99 hPa SSE 13 km/h 48 km/h 78% 0 mm 0 W/m2
02:10 10 °C 7 °C 996.89 hPa SSE 23 km/h 31 km/h 78% 0 mm 0 W/m2
02:15 10 °C 6 °C 996.72 hPa SSE 23 km/h 43 km/h 77% 0 mm 0 W/m2
02:20 10 °C 7 °C 996.72 hPa SSE 27 km/h 42 km/h 79% 0 mm 0 W/m2
02:25 10 °C 7 °C 996.31 hPa SSE 14 km/h 34 km/h 80% 0 mm 0 W/m2
02:30 10 °C 7 °C 996 hPa SSE 14 km/h 34 km/h 82% 0 mm 0 W/m2
02:35 10 °C 7 °C 996.17 hPa S 21 km/h 37 km/h 83% 0 mm 0 W/m2
02:40 10 °C 7 °C 995.9 hPa SSE 27 km/h 42 km/h 84% 0 mm 0 W/m2
02:45 10 °C 7 °C 995.7 hPa SSE 23 km/h 40 km/h 85% 0 mm 0 W/m2
02:50 10 °C 8 °C 995.5 hPa SSE 14 km/h 35 km/h 86% 0 mm 0 W/m2
02:55 10 °C 8 °C 995.7 hPa S 21 km/h 43 km/h 87% 0 mm 0 W/m2
03:00 10 °C 8 °C 995.19 hPa SSE 21 km/h 32 km/h 88% 0 mm 0 W/m2
03:05 10 °C 8 °C 994.99 hPa SSE 24 km/h 32 km/h 88% 0 mm 0 W/m2
03:10 10 °C 8 °C 994.99 hPa S 19 km/h 32 km/h 89% 0 mm 0 W/m2
03:15 10 °C 8 °C 994.82 hPa S 29 km/h 45 km/h 89% 0.61 mm 0 W/m2
03:20 10 °C 8 °C 994.41 hPa SSE 19 km/h 51 km/h 89% 0.89 mm 0 W/m2
03:25 10 °C 8 °C 994.41 hPa SSE 24 km/h 40 km/h 89% 0.3 mm 0 W/m2
03:30 10 °C 9 °C 994.38 hPa S 10 km/h 32 km/h 90% 0.61 mm 0 W/m2
03:35 10 °C 9 °C 994.21 hPa SSE 2 km/h 21 km/h 90% 0 mm 0 W/m2
03:40 11 °C 9 °C 994.31 hPa Calm   16 km/h 90% 0 mm 0 W/m2
03:45 11 °C 9 °C 994.11 hPa Calm   13 km/h 90% 1.19 mm 0 W/m2
03:50 11 °C 9 °C 994.11 hPa Calm   11 km/h 90% 0.3 mm 0 W/m2
03:55 11 °C 9 °C 994.21 hPa Calm   10 km/h 90% 1.19 mm 0 W/m2
04:00 11 °C 9 °C 993.8 hPa Calm   10 km/h 91% 2.69 mm 0 W/m2
04:05 11 °C 9 °C 994.01 hPa Calm     91% 4.8 mm 0 W/m2
04:10 11 °C 9 °C 993.7 hPa Calm   5 km/h 91% 1.8 mm 0 W/m2
04:15 11 °C 9 °C 993.5 hPa Calm     91% 1.19 mm 0 W/m2
04:20 11 °C 9 °C 993.5 hPa Calm     91% 0 mm 0 W/m2
04:25 11 °C 9 °C 993.19 hPa Calm     91% 0 mm 0 W/m2
04:30 11 °C 9 °C 993.19 hPa Calm   5 km/h 91% 0 mm 0 W/m2
04:35 11 °C 9 °C 993.3 hPa Calm   3 km/h 90% 0 mm 0 W/m2
04:40 11 °C 9 °C 993.3 hPa Calm   2 km/h 90% 0 mm 0 W/m2
04:45 11 °C 9 °C 993.19 hPa Calm     90% 0 mm 0 W/m2
04:50 11 °C 9 °C 993.5 hPa Calm     90% 0 mm 0 W/m2
04:55 11 °C 9 °C 992.99 hPa Calm   6 km/h 90% 0 mm 0 W/m2
05:00 11 °C 9 °C 993.3 hPa Calm   6 km/h 90% 0 mm 0 W/m2
05:05 11 °C 9 °C 993.09 hPa Calm     90% 0 mm 0 W/m2
05:10 11 °C 9 °C 992.99 hPa Calm   5 km/h 90% 0 mm 0 W/m2
05:15 11 °C 9 °C 993.02 hPa Calm   6 km/h 90% 0 mm 0 W/m2
05:20 11 °C 9 °C 992.99 hPa Calm     89% 0 mm 0 W/m2
05:25 11 °C 9 °C 992.92 hPa Calm   3 km/h 89% 0.3 mm 0 W/m2
05:30 11 °C 9 °C 992.99 hPa Calm   3 km/h 89% 0 mm 0 W/m2
05:35 11 °C 9 °C 993.09 hPa Calm   8 km/h 90% 0 mm 0 W/m2
05:40 11 °C 9 °C 992.79 hPa Calm   10 km/h 90% 0.3 mm 0 W/m2
05:45 11 °C 9 °C 992.82 hPa Calm   6 km/h 90% 0 mm 0 W/m2
05:50 11 °C 9 °C 993.33 hPa Calm   10 km/h 90% 0.61 mm 0 W/m2
05:55 11 °C 9 °C 993.19 hPa SSW 2 km/h 13 km/h 89% 0 mm 0 W/m2
06:00 11 °C 9 °C 993.4 hPa SSE 10 km/h 18 km/h 89% 0 mm 0 W/m2
06:05 11 °C 9 °C 993.3 hPa S 19 km/h 23 km/h 88% 0.3 mm 0 W/m2
06:10 11 °C 9 °C 993.8 hPa S 16 km/h 24 km/h 87% 0 mm 0 W/m2
06:15 10 °C 8 °C 994.01 hPa SSW 14 km/h 37 km/h 86% 0.3 mm 0 W/m2
06:20 9 °C 7 °C 994.38 hPa SW 11 km/h 37 km/h 84% 0 mm 0 W/m2
06:25 9 °C 6 °C 994.58 hPa SW 19 km/h 34 km/h 82% 0 mm 0 W/m2
06:30 9 °C 6 °C 994.48 hPa WSW 16 km/h 34 km/h 82% 0.89 mm 0 W/m2
06:35 8 °C 6 °C 994.11 hPa WSW 13 km/h 34 km/h 82% 0.3 mm 0 W/m2
06:40 8 °C 5 °C 994.01 hPa SW 14 km/h 34 km/h 82% 0 mm 0 W/m2
06:45 8 °C 5 °C 994.11 hPa SSW 14 km/h 26 km/h 83% 0.3 mm 0 W/m2
06:50 8 °C 5 °C 994.21 hPa SSW 16 km/h 27 km/h 82% 0 mm 0 W/m2
06:55 8 °C 5 °C 994.21 hPa SSW 13 km/h 24 km/h 82% 0 mm 0 W/m2
07:00 8 °C 5 °C 994.11 hPa SSW 11 km/h 24 km/h 82% 0 mm 0 W/m2
07:05 8 °C 5 °C 994.21 hPa S 10 km/h 21 km/h 82% 0 mm 0 W/m2
07:10 8 °C 5 °C 994.01 hPa SSW 16 km/h 29 km/h 82% 0 mm 0 W/m2
07:15 8 °C 5 °C 993.91 hPa S 16 km/h 35 km/h 81% 0 mm 0 W/m2
07:20 8 °C 5 °C 994.11 hPa S 16 km/h 29 km/h 80% 0 mm 0 W/m2
07:25 8 °C 5 °C 994.11 hPa S 10 km/h 26 km/h 79% 0 mm 0 W/m2
07:30 8 °C 5 °C 994.21 hPa S 13 km/h 19 km/h 79% 0 mm 0 W/m2
07:35 8 °C 5 °C 994.11 hPa S 8 km/h 19 km/h 80% 0 mm 0 W/m2
07:40 8 °C 5 °C 994.28 hPa S 11 km/h 16 km/h 81% 0 mm 0 W/m2
07:45 8 °C 5 °C 994.48 hPa S 10 km/h 16 km/h 81% 0 mm 0 W/m2
07:50 8 °C 5 °C 994.58 hPa S 11 km/h 18 km/h 82% 0 mm 0 W/m2
07:55 8 °C 5 °C 994.48 hPa SSE 11 km/h 18 km/h 82% 0 mm 0 W/m2
08:00 8 °C 5 °C 994.41 hPa SSE 13 km/h 18 km/h 82% 0 mm 0 W/m2
08:05 8 °C 5 °C 994.31 hPa S 8 km/h 16 km/h 83% 0 mm 0 W/m2
08:10 8 °C 5 °C 994.38 hPa S 5 km/h 13 km/h 84% 0 mm 0 W/m2
08:15 8 °C 5 °C 994.58 hPa S 5 km/h 13 km/h 84% 0 mm 0 W/m2
08:20 8 °C 5 °C 994.41 hPa SSE 5 km/h 13 km/h 84% 0 mm 0 W/m2
08:25 8 °C 5 °C 994.68 hPa SSE 11 km/h 16 km/h 84% 0 mm 0 W/m2
08:30 8 °C 5 °C 994.79 hPa SSE 10 km/h 18 km/h 84% 0 mm 0 W/m2
08:35 8 °C 5 °C 994.68 hPa S 11 km/h 19 km/h 84% 0 mm 0 W/m2
08:40 8 °C 5 °C 994.55 hPa S 14 km/h 19 km/h 84% 0 mm 0 W/m2
08:45 8 °C 5 °C 994.68 hPa SSE 13 km/h 21 km/h 84% 0 mm 0 W/m2
08:50 8 °C 5 °C 994.51 hPa SSE 8 km/h 18 km/h 84% 0 mm 0 W/m2
08:55 8 °C 5 °C 994.62 hPa S 8 km/h 16 km/h 84% 0 mm 0 W/m2
09:00 8 °C 5 °C 994.68 hPa S 10 km/h 21 km/h 84% 0 mm 0 W/m2
09:05 7 °C 5 °C 994.79 hPa S 11 km/h 14 km/h 84% 0 mm 0 W/m2
09:10 7 °C 5 °C 994.68 hPa S 14 km/h 21 km/h 85% 0 mm 0 W/m2
09:15 7 °C 5 °C 994.51 hPa S 11 km/h 19 km/h 85% 0 mm 0 W/m2
09:20 7 °C 5 °C 994.89 hPa S 11 km/h 21 km/h 85% 0 mm 0 W/m2
09:25 7 °C 5 °C 994.68 hPa S 10 km/h 16 km/h 86% 0 mm 0 W/m2
09:30 7 °C 5 °C 994.92 hPa S 13 km/h 21 km/h 86% 0 mm 0 W/m2
09:35 7 °C 5 °C 994.99 hPa SSE 13 km/h 19 km/h 86% 0 mm 0 W/m2
09:40 7 °C 5 °C 994.79 hPa SSE 10 km/h 19 km/h 86% 0 mm 0 W/m2
09:45 8 °C 5 °C 994.89 hPa SSE 16 km/h 23 km/h 86% 0 mm 0 W/m2
09:50 8 °C 5 °C 994.99 hPa SSE 11 km/h 23 km/h 86% 0 mm 0 W/m2
09:55 8 °C 5 °C 994.89 hPa S 14 km/h 26 km/h 86% 0 mm 0 W/m2
10:00 8 °C 6 °C 994.82 hPa S 14 km/h 24 km/h 86% 0 mm 0 W/m2
Garrymore Weather Station, Geashill, Tullamore, Offaly, Ireland
Compliments of Weather Underground - 2 mb